Snowfall_Accumulation
6.6 7.4 4.7 7.3 13.6 10.3 13.9 15.5 26.2 28.2 18.7 14.7 14.5 11.9 8.6 7.5 3.3 2.2 2.4 1.7 2.4 3.7 4.6 4.2 2.5 1.9 1.1 0.3 0.1 0.3 0.4 0.3 4.0 12.0 11.7 12.5 12.5 14.4 11.8 14.9 15.6 12.2 15.0 10.4
9.0 6.1 3.2 12.6 11.8 8.6 8.6 10.3 12.6 7.2 13.4 12.7 9.4 6.8 4.3 2.1 1.0 0.2 0.1 0.2 1.3 0.4 0.9 1.6 0.9 0.4 0.0 0.0 0.0 0.0 0.0 0.0 0.0 0.1 1.0 3.8 6.0 6.8 5.4 10.9 14.5 10.7 13.7 11.6
10.5 2.4 5.6 15.3 17.2 9.0 6.6 4.2 4.8 6.9 13.6 8.4 5.2 3.1 4.2 1.6 0.2 0.0 0.2 3.4 8.6 3.8 4.0 0.4 2.1 0.0 1.1 0.0 0.0 0.0 0.0 0.1 0.0 0.2 0.3 1.7 1.9 1.3 3.6 4.1 4.2 4.7 7.0 6.8
11.5 8.0 29.0 12.9 4.2 3.3 2.4 2.3 3.1 3.1 3.3 2.0 1.0 1.4 1.5 1.3 0.6 1.7 1.2 2.0 5.1 9.3 7.7 4.8 4.8 3.0 2.4 1.5 1.6 0.0 0.0 0.1 0.1 0.2 1.8 2.3 0.9 0.8 2.1 2.5 3.8 6.0 6.6 7.0
18.9 11.4 13.2 11.5 2.7 2.8 2.9 2.9 2.3 1.4 0.8 0.5 0.7 0.3 3.4 2.8 2.0 1.5 1.1 0.8 0.7 1.8 6.6 6.9 6.0 5.6 3.1 1.9 2.3 3.2 3.8 2.8 2.1 3.0 2.2 1.5 1.9 1.4 2.9 3.4 4.0 5.4 6.0 7.5
19.7 17.2 21.7 8.7 0.7 0.1 1.8 5.4 1.3 0.3 0.3 0.4 0.4 1.7 3.1 3.6 3.3 1.6 0.6 0.0 0.0 0.0 0.0 0.0 0.0 5.2 4.7 4.0 1.6 3.4 5.4 7.9 8.2 6.7 6.9 6.6 7.3 9.7 6.1 4.3 6.6 5.7 5.6 11.1
23.6 25.9 17.5 2.0 1.1 0.5 8.6 9.4 1.5 0.2 0.1 0.0 0.4 1.6 3.4 2.5 3.9 4.3 0.0 0.0 0.0 0.0 0.0 0.0 0.0 0.0 1.7 2.7 3.6 5.6 3.9 6.3 6.8 12.0 12.9 15.0 12.6 18.1 18.4 11.2 8.3 9.5 9.5 8.7
19.2 24.9 23.7 2.8 1.9 5.0 6.3 1.3 0.9 0.4 0.2 1.5 1.1 2.8 4.1 4.8 5.1 2.6 0.3 0.0 0.0 0.0 0.0 0.0 0.0 0.0 0.4 4.4 0.6 1.5 2.9 6.1 6.3 7.7 11.0 12.3 13.0 14.1 15.2 15.6 13.2 15.0 12.4 17.2
11.2 17.1 8.7 6.5 5.6 2.4 2.2 2.3 2.2 0.9 0.3 1.3 5.7 6.3 7.3 7.0 5.3 2.7 0.7 0.0 0.0 0.0 0.0 0.0 0.0 0.0 0.1 0.6 3.2 3.3 4.2 6.5 7.2 7.2 7.9 8.5 9.4 10.3 10.2 9.3 10.2 10.9 11.3 12.4
10.9 7.7 3.9 6.7 4.7 2.1 0.9 3.9 2.0 0.8 1.1 1.9 4.5 3.5 3.5 3.8 2.1 1.0 0.3 0.0 0.0 0.0 0.0 0.0 0.0 0.0 0.2 1.5 1.5 2.4 3.7 4.8 6.1 6.3 6.6 6.8 6.7 6.2 6.2 6.7 6.8 7.0 7.5 9.8
11.6 7.1 4.0 2.8 3.4 2.5 2.3 2.1 0.8 0.4 0.8 0.1 1.7 0.3 0.0 6.5 0.2 0.2 0.0 0.1 0.0 0.0 0.0 0.0 0.0 2.5 0.5 1.5 1.6 2.1 2.6 4.3 5.0 4.3 3.5 3.9 4.0 5.0 5.0 6.8 6.0 5.8 6.4 6.5
11.9 10.7 9.1 6.5 5.5 4.6 3.9 2.6 1.0 0.9 2.0 0.2 0.1 0.2 0.2 0.5 0.1 0.0 0.0 0.0 0.0 0.1 1.5 0.1 0.0 0.0 1.0 1.4 1.6 1.8 2.1 2.8 3.3 3.6 3.2 2.9 2.7 4.7 4.7 5.2 4.6 5.8 4.3 5.5
5.6 6.5 9.1 9.2 6.2 3.1 2.5 0.9 0.1 0.1 0.0 0.0 0.0 0.1 3.9 0.2 0.0 0.0 0.0 0.0 4.7 6.5 2.7 2.4 0.8 1.6 0.2 0.7 0.1 0.1 0.1 1.6 1.9 3.9 3.2 5.1 7.5 5.6 6.8 10.6 7.3 10.1 11.7 13.1
0.6 0.5 1.6 1.0 0.9 0.1 0.0 0.0 0.0 0.0 0.0 0.0 0.0 0.0 0.0 0.4 0.6 0.5 5.0 0.9 6.1 7.3 8.8 9.2 3.7 2.7 2.7 4.3 3.8 3.1 2.5 3.5 4.6 4.2 4.1 6.1 10.1 11.8 11.8 10.6 14.6 19.0 19.6 17.9
0.0 0.0 0.0 0.0 0.0 0.0 0.0 0.0 0.0 0.0 0.0 0.2 0.2 0.6 1.5 7.4 7.0 7.0 8.0 7.0 7.0 7.1 10.1 10.5 7.5 7.8 7.0 5.0 6.1 11.0 13.3 11.8 14.7 14.5 15.6 15.1 13.5 15.7 16.0 15.0 13.8 13.2 14.3 14.8
0.0 0.0 0.0 0.1 0.1 0.0 0.7 0.7 0.1 0.8 2.9 1.0 1.2 1.2 1.2 3.2 14.4 12.0 8.3 6.3 6.6 8.3 8.5 7.0 7.1 11.7 11.5 12.7 14.2 16.1 16.1 17.9 16.6 14.6 15.3 14.2 13.5 11.5 11.9 10.9 9.3 8.6 7.7 7.8
1.1 0.7 1.0 0.8 1.0 1.4 1.5 2.1 2.5 2.8 2.9 2.5 3.0 2.9 3.5 11.8 11.2 9.4 9.0 7.1 7.5 8.5 10.6 11.0 14.0 14.8 15.9 16.7 16.8 16.9 15.2 14.8 13.4 10.9 10.6 10.7 9.9 10.0 9.3 7.6 9.9 7.5 7.6 6.1
1.0 1.3 1.1 0.9 1.2 1.7 2.8 1.3 1.8 1.8 2.1 2.4 3.8 3.3 5.3 11.7 13.0 9.6 9.2 7.4 6.1 9.3 12.0 13.9 13.1 13.3 13.8 14.5 11.4 10.0 10.0 9.1 7.9 7.5 8.3 8.7 8.5 8.8 8.2 8.5 8.3 7.7 5.4 4.6
0.2 0.4 0.7 0.8 1.0 1.0 1.6 1.9 2.6 3.2 4.0 4.2 5.2 7.5 10.3 13.9 14.0 12.5 10.8 8.0 7.9 7.4 10.3 8.6 7.7 5.6 5.6 5.6 3.6 4.8 5.9 5.8 6.5 6.0 5.4 6.1 5.9 6.2 7.2 8.2 9.1 7.5 7.6 7.6
1.1 1.2 1.2 1.6 2.1 2.9 3.2 5.1 5.5 6.3 8.3 7.5 7.9 9.1 11.7 15.9 12.6 9.3 6.8 6.0 6.1 6.0 4.9 4.1 3.1 3.3 3.4 2.8 3.0 5.6 6.6 5.8 7.1 6.5 6.6 6.2 6.3 5.5 7.2 7.8 7.8 9.0 9.3 7.1
5.9 6.0 7.0 6.9 7.8 9.1 7.8 8.2 6.6 7.4 9.5 8.1 6.2 7.8 7.6 10.4 9.4 5.7 4.3 4.3 5.6 3.9 3.0 2.4 1.8 1.8 1.5 1.9 2.3 2.7 4.1 6.3 7.4 7.7 9.0 9.4 9.3 8.7 8.6 8.0 9.2 9.4 9.4 8.3
7.8 7.0 9.8 8.5 7.5 10.8 9.4 8.2 6.3 6.0 5.7 5.6 6.1 6.2 5.0 5.5 5.5 4.6 3.2 3.1 3.0 2.1 1.4 1.1 1.1 0.6 0.8 1.0 1.6 1.6 1.6 2.9 5.7 6.7 7.5 9.6 11.2 11.6 11.2 10.2 10.4 9.4 9.0 8.2
6.5 6.1 6.9 6.7 6.4 6.4 7.0 6.5 5.7 4.5 4.4 4.3 4.1 5.4 5.3 4.8 3.7 4.4 3.5 2.7 1.4 1.1 1.0 0.9 0.8 0.5 1.0 1.2 2.0 2.0 2.7 3.7 4.9 5.7 7.1 8.5 10.4 10.6 10.7 10.2 9.3 9.0 9.8 8.6
5.3 4.9 4.6 4.3 3.2 2.1 2.9 4.7 3.9 4.1 3.8 2.5 2.0 2.4 2.5 3.5 4.1 2.8 2.2 1.8 1.8 1.6 1.0 2.6 2.2 2.1 2.7 4.4 4.5 4.1 4.1 4.8 5.1 5.5 6.5 7.8 9.0 8.8 8.6 8.8 8.2 7.6 8.0 8.3
4.1 4.0 3.6 2.7 2.1 3.5 2.5 1.8 1.2 1.2 1.2 1.7 2.5 3.1 2.9 1.9 2.7 3.0 1.9 2.2 1.8 1.7 2.6 2.8 3.5 4.2 5.7 6.4 5.6 4.7 5.2 5.9 5.6 5.6 6.2 6.8 5.9 6.0 6.5 6.7 7.1 7.2 6.3 6.6
3.2 2.9 2.9 2.3 2.3 1.9 1.7 0.9 1.3 1.4 0.8 1.8 2.1 1.9 2.0 1.2 1.2 1.5 2.0 2.0 2.1 2.0 3.2 3.3 3.3 3.7 4.6 4.6 4.3 4.0 4.5 4.7 5.1 5.6 4.8 4.5 3.9 4.0 4.9 5.1 6.0 5.4 4.8 4.8
3.0 2.3 1.8 1.6 1.7 1.7 1.7 1.6 1.6 2.5 2.8 2.6 1.9 2.2 1.7 1.7 1.7 1.2 1.4 1.7 2.2 2.7 3.6 3.8 3.9 4.0 3.9 4.1 4.0 3.9 4.0 4.0 3.8 4.1 4.0 4.2 4.5 4.3 4.5 4.5 4.3 4.9 4.7 4.3